Regional Weather Roundup
Issued by NWS

Home | Current Version | Previous Version | Text Only | Print | Product List | Glossary On
Versions: 1 2 3 4 5 6 7 8 9 10 11 12 13 14 15 16 17 18 19 20 21 22 23 24 25 26 27 28 29 30 31 32 33 34 35 36 37 38 39 40 41 42 43 44 45 46 47 48 49 50
000
ASUS43 KMPX 061210
RWRMN
WEATHER ROUNDUP FOR MINNESOTA
NATIONAL WEATHER SERVICE TWIN CITIES/CHANHASSEN MN
600 AM CST TUE DEC 06 2016


NOTE: "FAIR" INDICATES FEW OR NO CLOUDS BELOW 12,000 FEET WITH NO
SIGNIFICANT WEATHER AND/OR OBSTRUCTIONS TO VISIBILITY. N/A MEANS
CURRENT SKY AND/OR WEATHER CONDITIONS ARE NOT AVAILABLE.

MNZ060>063-068>070-061300-
   Twin Cities Metro

CITY           SKY/WX    TMP DP  RH WIND       PRES   REMARKS
TWIN CITIES    CLOUDY    27  18  69 W16G26    29.72S WCI  15
6HR MIN TEMP:  27; 6HR MAX TEMP:  39;

ST PAUL        CLOUDY    28  22  78 W16G26    29.73S WCI  16
CRYSTAL        CLOUDY    25  15  66 SW17G28   29.71S WCI  12
BLAINE         CLOUDY    28  19  69 SW16G25   29.70R WCI  17
LAKEVILLE      CLOUDY    25  21  86 W15       29.73S WCI  12
EDEN PRAIRIE   CLOUDY    26  16  65 W10G23    29.72S WCI  16
6HR MIN TEMP:  26; 6HR MAX TEMP:  37;

SOUTH ST PAUL  CLOUDY    29  21  69 SW16G23   29.72S WCI  18
LAKE ELMO      CLOUDY    30  25  80 SW14G23   29.71S WCI  20
$$
MNZ001>005-007-008-013>017-022>024-027-028-061300-
   Northwest Minnesota

CITY           SKY/WX    TMP DP  RH WIND       PRES   REMARKS
BEMIDJI        CLOUDY    20  17  86 S14G22    29.43S WCI   7
HALLOCK        LGT SNOW  30  28  93 N18G25    29.26F WCI  18
ROSEAU         FLURRIES  27  21  80 S16       29.33R WCI  14
WARROAD        FLURRIES  27  25  93 S15G22    29.35R WCI  15
THIEF RVR FALL LGT SNOW  22  20  92 S28G36    29.31S FOG     WCI   4
CROOKSTON      LGT SNOW  25  25 100 S22       29.31F WCI  10
FOSSTON        CLOUDY    18  16  93 S28G35    29.37F WCI  -1
DETROIT LAKES  CLOUDY    21  18  86 SW25G31   29.43F WCI   4
MOORHEAD       RAIN      21  19  93 S16G25    29.41F WCI   7
PARK RAPIDS    CLOUDY    19  11  70 S21G31    29.48F WCI   3
$$
MNZ006-009>011-018-025>026-061300-
   North Central Minnesota

CITY           SKY/WX    TMP DP  RH WIND       PRES   REMARKS
BAUDETTE       CLOUDY    30  24  78 S22G29    29.38R WCI  17
FLAG ISLAND    FLURRIES  32  30  93 S30       29.34R WCI  18
INTL FALLS     CLOUDY    32  27  81 S14G23    29.44R WCI  22
6HR MIN TEMP:  31; 6HR MAX TEMP:  34; 6HR PCP:  0.02;

WASKISH        CLOUDY    27  23  86 S9G20     29.42R WCI  17
BIG FORK       CLOUDY    27  21  80 S16G25    29.46S WCI  14
LONGVILLE      CLOUDY    19  16  86 S12G21    29.52F WCI   7
GRAND RAPIDS   CLOUDY    26  20  77 S14G20    29.52S WCI  14
CRANE LAKE     CLOUDY    32  30  93 S9G20     29.49F WCI  24
ORR            CLOUDY    32  27  80 S13G18    29.44S WCI  22
COOK           CLOUDY    30  27  86 S14G24    29.49S WCI  20
$$
MNZ012-019>021-037-061300-
   Northeast Minnesota

CITY           SKY/WX    TMP DP  RH WIND       PRES   REMARKS
DULUTH         CLOUDY    31  27  85 SW12      29.54S WCI  22
6HR MIN TEMP:  31; 6HR MAX TEMP:  36;

ELY            CLOUDY    34  30  86 S13G20    29.50S WCI  25
HIBBING        CLOUDY    28  24  85 S12G23    29.50F WCI  18
EVELETH        CLOUDY    32  28  85 SW9G17    29.52S WCI  24
DULUTH HARBOR  CLOUDY    36  28  75 S21       29.59S
TWO HARBORS    CLOUDY    36  30  80 SW13G20   29.55S
SILVER BAY     RAIN      36  34  93 S9        29.54S
GRAND MARAIS     N/A     38  36  92 S24       29.62F
G MARAIS ARPRT SNOW      30  28  93 S13G18    29.57F VSB 1/2 WCI  20
$$
MNZ029>031-032-039>041-046>048-054>057-064-061300-
   West Central Minnesota

CITY           SKY/WX    TMP DP  RH WIND       PRES   REMARKS
FERGUS FALLS   FLURRIES  18  14  86 SW20G31   29.56F WCI   1
WHEATON        SNOW      19  16  86 SW24G35   29.59F VSB 1/2 WCI   2
MORRIS         FLURRIES  19  12  73 SW26G35   29.60F WCI   1
ALEXANDRIA     CLOUDY    18  12  77 SW20G32   29.58F WCI   2
ELBOW LAKE     FLURRIES  18  13  82 SW23G31   29.57S WCI   0
WADENA         MIX PCPN  18  12  79 SW21G29   29.51F WCI   1
GLENWOOD       FLURRIES  18  12  79 SW26G32   29.61S WCI  -1
APPLETON       CLOUDY    19  12  73 W30G37    29.65F WCI   0
BENSON         FLURRIES  19  10  68 W17G24    29.67F WCI   4
ORTONVILLE     CLOUDY    18  10  73 W15G32    29.66F WCI   3
MADISON        CLOUDY    19  12  73 W28G35    29.71F WCI   1
WILLMAR        FLURRIES  19  16  86 SW25      29.70F WCI   2
$$
MNZ033>034-036-042>043-049>051-058-059-061300-
   Central Minnesota

CITY           SKY/WX    TMP DP  RH WIND       PRES   REMARKS
ST CLOUD       CLOUDY    22  15  75 SW17      29.66F WCI   8
6HR MIN TEMP:  22; 6HR MAX TEMP:  34;

PAYNESVILLE    CLOUDY    20  15  81 SW18      29.68F WCI   4
AITKIN         CLOUDY    25  16  68 SW14G29   29.56S WCI  13
PINE RIVER     CLOUDY    19  16  86 S12G21    29.58S WCI   7
BRAINERD       CLOUDY    20  15  81 S14       29.57F WCI   7
STAPLES        FLURRIES  18  12  79 S16G23    29.55F WCI   3
LONG PRAIRIE   FLURRIES  19  14  79 S20G25    29.60F WCI   4
LITTLE FALLS   CLOUDY    21  14  73 SW13G22   29.62F WCI   9
LITCHFIELD     CLOUDY    21  16  79 SW13G21   29.70F WCI   9
BUFFALO        CLOUDY    23  15  72 SW12G24   29.72S WCI  11
MAPLE LAKE     CLOUDY    24  18  78 SW9       29.70F WCI  14
$$
MNZ037-044-045-052-053-061300-
   East Central Minnesota

CITY           SKY/WX    TMP DP  RH WIND       PRES   REMARKS
PRINCETON      CLOUDY    25  18  74 SW15G21   29.67S WCI  12
MORA           CLOUDY    25  18  74 SW14G25   29.66R WCI  13
CAMBRIDGE      CLOUDY    28  18  64 SW12G24   29.65F WCI  18
RUSH CITY      CLOUDY    27  21  80 SW14      29.66S WCI  15
MOOSE LAKE     CLOUDY    30  23  74 S14G22    29.57F WCI  20
HINCKLEY       CLOUDY    30  25  80 SW15      29.63R WCI  19
CLOQUET        CLOUDY    30  23  74 S15G21    29.56S WCI  19
MCGREGOR       CLOUDY    27  19  74 SW17G29   29.57S WCI  14
$$
MNZ071>073-080-081-089-090-097-098-061300-
   Southwest Minnesota

CITY           SKY/WX    TMP DP  RH WIND       PRES   REMARKS
MONTEVIDEO     FLURRIES  19  10  68 W17G25    29.72F WCI   4
GRANITE FALLS  CLOUDY    20  13  75 SW23G29   29.77R WCI   3
CANBY          PTCLDY    18  10  73 W25G33    29.74F WCI  -1
MARSHALL       MOCLDY    16   9  74 W23G33    29.76S WCI  -2
REDWOOD FALLS  CLOUDY    19   9  65 W17G30    29.77S WCI   4
OLIVIA         MOCLDY    21  14  73 SW18G24   29.73F WCI   6
PIPESTONE      CLOUDY    16  10  79 W28       29.77S WCI  -4
WINDOM         PTCLDY    16  10  79 W21G30    29.78S WCI  -2
WORTHINGTON    FLURRIES  15  10  80 W30G37    29.78F WCI  -5
JACKSON        PTCLDY    18  10  73 W16G22    29.80S WCI   3
TRACY          MOCLDY    18  11  77 W15G24    29.76F WCI   3
SLAYTON        CLEAR     14   9  80 W26G38    29.74S WCI  -5
$$
MNZ065>067-074>077-082>085-091>093-061300-
   South Central Minnesota

CITY           SKY/WX    TMP DP  RH WIND       PRES   REMARKS
MANKATO        CLOUDY    23  17  78 W13       29.77S WCI  11
NEW ULM        MOCLDY    19  12  73 SW18      29.77F WCI   4
ST JAMES       CLEAR     19  12  73 SW18      29.80S WCI   4
FAIRMONT       MOCLDY    20  13  74 W18G25    29.80S WCI   5
GLENCOE        CLOUDY    23  18  82 SW17G23   29.74S WCI   9
FARIBAULT      CLOUDY    27  21  80 SW12G17   29.76R WCI  16
OWATONNA       CLOUDY    28  21  74 SW18G24   29.75S WCI  16
WASECA         CLOUDY    27  19  74 SW23      29.78S WCI  12
ALBERT LEA     CLOUDY    30  23  74 W15       29.77S WCI  19
$$
MNZ078>079-086>088-094>096-061300-
   Southeast Minnesota

CITY           SKY/WX    TMP DP  RH WIND       PRES   REMARKS
ROCHESTER      LGT SNOW  29  27  92 W17       29.74S FOG     WCI  17
6HR MIN TEMP:  30; 6HR MAX TEMP:  33; 6HR PCP:  0.07;

RED WING       LGT SNOW  32  28  86 W9        29.72F WCI  24
STANTON        CLOUDY    31  23  74 W15G22    29.73S WCI  20
DODGE CENTER   FLURRIES  28  25  86 SW18      29.73F WCI  16
WINONA         LGT SNOW  34  32  93 SW9       29.76R WCI  26
AUSTIN         CLOUDY    28  25  86 W13       29.76S WCI  18
PRESTON        LGT SNOW  30  28  92 W8        29.75S WCI  22
$$
ABBREVIATIONS USED IN REMARKS
   TC - TEMPERATURES IN CELSIUS
  WCI - WIND CHILL INDEX
   HX - HEAT INDEX
  VSB - VISIBILITY
$$



USA.gov is the U.S. government's official web portal to all federal, state and local government web resources and services.